�������l�o���
Date,Time,MP-1(��Sv/h),MP-2(��Sv/h),MP-3(��Sv/h),MP-4(��Sv/h),MP-5(��Sv/h),MP-6(��Sv/h),MP-7(��Sv/h),MP-8(��Sv/h),����,����(m/s),���J
2020/08/10,00:00,0.672,0.963,0.606,1.163,0.840,0.394,0.678,0.636,�k��,2.8,��
2020/08/10,00:10,0.673,0.962,0.607,1.159,0.837,0.395,0.678,0.634,���k��,4.9,��
2020/08/10,00:20,0.672,0.965,0.606,1.161,0.839,0.396,0.678,0.636,���k��,6.7,��
2020/08/10,00:30,0.672,0.962,0.607,1.161,0.839,0.395,0.676,0.636,���k��,7.4,��
2020/08/10,00:40,0.672,0.961,0.608,1.162,0.840,0.396,0.677,0.635,���k��,7.6,��
2020/08/10,00:50,0.673,0.963,0.607,1.160,0.839,0.394,0.675,0.635,���k��,7.4,��
2020/08/10,01:00,0.672,0.963,0.607,1.160,0.838,0.396,0.676,0.634,��,6.1,��
2020/08/10,01:10,0.671,0.964,0.606,1.163,0.839,0.395,0.678,0.635,��,4.9,��
2020/08/10,01:20,0.671,0.963,0.607,1.161,0.840,0.395,0.677,0.635,��,5.3,��
2020/08/10,01:30,0.673,0.963,0.606,1.162,0.840,0.394,0.676,0.637,��,6.9,��
2020/08/10,01:40,0.671,0.963,0.606,1.163,0.841,0.396,0.677,0.635,��,7.0,��
2020/08/10,01:50,0.672,0.962,0.608,1.164,0.838,0.395,0.677,0.635,��,5.8,��
2020/08/10,02:00,0.673,0.961,0.607,1.162,0.839,0.396,0.677,0.635,���쐼,1.2,��
2020/08/10,02:10,0.672,0.963,0.606,1.161,0.837,0.395,0.678,0.636,��쓌,0.9,��
2020/08/10,02:20,0.671,0.962,0.607,1.161,0.838,0.394,0.677,0.634,���쐼,1.5,��
2020/08/10,02:30,0.672,0.963,0.608,1.163,0.839,0.394,0.674,0.635,���쐼,1.4,��
2020/08/10,02:40,0.671,0.963,0.607,1.164,0.839,0.396,0.676,0.636,�쐼,2.2,��
2020/08/10,02:50,0.672,0.961,0.609,1.163,0.841,0.397,0.678,0.635,�쐼,2.6,��
2020/08/10,03:00,0.671,0.963,0.607,1.162,0.841,0.395,0.678,0.636,���쐼,3.4,��
2020/08/10,03:10,0.672,0.962,0.608,1.161,0.839,0.395,0.676,0.635,���쐼,2.6,��
2020/08/10,03:20,0.672,0.964,0.608,1.162,0.839,0.395,0.676,0.635,��쐼,2.0,��
2020/08/10,03:30,0.669,0.961,0.608,1.163,0.840,0.396,0.676,0.636,�쐼,2.0,��
2020/08/10,03:40,0.670,0.962,0.609,1.164,0.839,0.393,0.677,0.635,��,1.7,��
2020/08/10,03:50,0.671,0.963,0.606,1.162,0.840,0.394,0.676,0.636,��,2.3,��
2020/08/10,04:00,0.672,0.964,0.606,1.164,0.840,0.395,0.676,0.635,��,2.0,��
2020/08/10,04:10,0.671,0.963,0.607,1.163,0.839,0.394,0.677,0.635,��,1.2,��
2020/08/10,04:20,0.672,0.963,0.607,1.164,0.840,0.393,0.676,0.635,��쐼,1.2,��
2020/08/10,04:30,0.671,0.963,0.608,1.163,0.840,0.394,0.676,0.634,�쐼,1.9,��
2020/08/10,04:40,0.671,0.963,0.607,1.164,0.839,0.394,0.676,0.636,�쐼,2.9,��
2020/08/10,04:50,0.670,0.963,0.607,1.165,0.841,0.394,0.676,0.635,�쐼,2.8,��
2020/08/10,05:00,0.673,0.962,0.606,1.164,0.840,0.395,0.676,0.635,�쐼,2.8,��
2020/08/10,05:10,0.672,0.962,0.606,1.162,0.840,0.395,0.675,0.635,��쐼,2.2,��
2020/08/10,05:20,0.674,0.962,0.607,1.164,0.841,0.395,0.675,0.636,��쐼,2.9,��
2020/08/10,05:30,0.672,0.965,0.608,1.167,0.839,0.395,0.675,0.635,��쐼,2.5,��
2020/08/10,05:40,0.672,0.962,0.607,1.162,0.839,0.393,0.676,0.635,��,2.8,��
2020/08/10,05:50,0.669,0.964,0.608,1.161,0.840,0.394,0.676,0.635,��쐼,2.8,��
2020/08/10,06:00,0.672,0.964,0.607,1.164,0.837,0.395,0.677,0.635,��쐼,2.9,��
2020/08/10,06:10,0.670,0.965,0.606,1.164,0.838,0.395,0.675,0.636,��쐼,2.3,��
2020/08/10,06:20,0.673,0.966,0.605,1.165,0.839,0.394,0.677,0.637,��쐼,2.3,��
2020/08/10,06:30,0.672,0.964,0.606,1.164,0.839,0.395,0.675,0.633,��쐼,3.0,��
2020/08/10,06:40,0.673,0.964,0.607,1.165,0.839,0.394,0.675,0.636,��쐼,2.6,��
2020/08/10,06:50,0.672,0.965,0.607,1.164,0.840,0.395,0.678,0.637,��쓌,1.7,��
2020/08/10,07:00,0.673,0.965,0.608,1.162,0.840,0.395,0.676,0.635,�쓌,1.2,��
2020/08/10,07:10,0.672,0.963,0.605,1.165,0.842,0.395,0.678,0.636,��쓌,1.2,��
2020/08/10,07:20,0.671,0.962,0.607,1.166,0.840,0.396,0.677,0.637,��,1.5,��
2020/08/10,07:30,0.671,0.965,0.606,1.165,0.840,0.396,0.676,0.635,�쐼,1.5,��
2020/08/10,07:40,0.671,0.964,0.605,1.162,0.840,0.394,0.677,0.635,�쐼,1.5,��
2020/08/10,07:50,0.675,0.965,0.607,1.164,0.841,0.394,0.676,0.634,���쐼,1.1,��
2020/08/10,08:00,0.672,0.965,0.607,1.164,0.842,0.393,0.676,0.635,���쐼,0.9,��
2020/08/10,08:10,0.672,0.968,0.609,1.164,0.839,0.395,0.678,0.634,�k�k��,0.9,��
2020/08/10,08:20,0.677,0.964,0.607,1.162,0.839,0.394,0.678,0.634,�k��,0.6,��
2020/08/10,08:30,0.674,0.964,0.608,1.164,0.841,0.396,0.677,0.636,�k�k��,0.9,��
2020/08/10,08:40,0.671,0.966,0.607,1.165,0.842,0.396,0.676,0.633,���k��,0.6,��
2020/08/10,08:50,0.674,0.966,0.608,1.164,0.844,0.395,0.676,0.634,��,0.9,��
2020/08/10,09:00,0.674,0.966,0.611,1.163,0.841,0.395,0.677,0.634,���k��,1.7,��
2020/08/10,09:10,0.677,0.966,0.609,1.163,0.840,0.395,0.677,0.633,���k��,0.9,��
2020/08/10,09:20,0.673,0.964,0.608,1.166,0.841,0.395,0.678,0.633,���쐼,0.9,��
2020/08/10,09:30,0.673,0.966,0.609,1.163,0.842,0.394,0.679,0.633,��,0.9,��
2020/08/10,09:40,0.674,0.965,0.607,1.167,0.843,0.393,0.677,0.634,��,2.3,��
2020/08/10,09:50,0.673,0.967,0.608,1.166,0.842,0.396,0.675,0.635,��,3.6,��
2020/08/10,10:00,0.674,0.967,0.608,1.167,0.841,0.395,0.676,0.633,��쓌,4.3,��
2020/08/10,10:10,0.674,0.966,0.607,1.168,0.841,0.395,0.678,0.634,��쓌,5.1,��
2020/08/10,10:20,0.674,0.965,0.609,1.168,0.844,0.394,0.676,0.635,��쓌,5.7,��
2020/08/10,10:30,0.673,0.968,0.609,1.167,0.842,0.395,0.679,0.635,��쓌,6.5,��
2020/08/10,10:40,0.672,0.968,0.610,1.167,0.844,0.395,0.677,0.634,��쓌,6.5,��
2020/08/10,10:50,0.675,0.969,0.609,1.166,0.843,0.396,0.676,0.634,��쓌,7.5,��
2020/08/10,11:00,0.673,0.969,0.609,1.169,0.846,0.395,0.678,0.635,��쓌,8.3,��
2020/08/10,11:10,0.675,0.971,0.610,1.167,0.845,0.395,0.678,0.636,��쓌,12.2,��
2020/08/10,11:20,0.675,0.969,0.608,1.166,0.846,0.397,0.677,0.636,��쓌,10.9,��
2020/08/10,11:30,0.678,0.970,0.611,1.164,0.845,0.396,0.678,0.635,��쓌,9.9,��
2020/08/10,11:40,0.676,0.973,0.609,1.166,0.847,0.394,0.679,0.636,��쓌,11.3,��
2020/08/10,11:50,0.677,0.973,0.610,1.168,0.848,0.396,0.677,0.636,��쓌,10.7,��
2020/08/10,12:00,0.677,0.973,0.610,1.166,0.847,0.395,0.678,0.636,��쓌,9.8,��
2020/08/10,12:10,0.679,0.973,0.610,1.167,0.849,0.395,0.678,0.636,��쓌,11.6,��
2020/08/10,12:20,0.675,0.974,0.612,1.166,0.847,0.394,0.679,0.636,��쓌,13.0,��
2020/08/10,12:30,0.675,0.974,0.612,1.167,0.849,0.395,0.681,0.635,��,9.9,��
2020/08/10,12:40,0.676,0.976,0.610,1.171,0.851,0.395,0.679,0.637,��쓌,11.7,��
2020/08/10,12:50,0.678,0.974,0.612,1.169,0.850,0.395,0.678,0.636,��쓌,11.7,��
2020/08/10,13:00,0.678,0.976,0.611,1.169,0.850,0.396,0.679,0.635,��쓌,11.0,��
2020/08/10,13:10,0.678,0.977,0.612,1.168,0.851,0.395,0.679,0.637,��쓌,10.5,��
2020/08/10,13:20,0.677,0.974,0.611,1.168,0.851,0.396,0.677,0.636,��쓌,10.0,��
2020/08/10,13:30,0.678,0.975,0.612,1.170,0.851,0.395,0.678,0.636,��쓌,9.3,��
2020/08/10,13:40,0.678,0.977,0.614,1.170,0.851,0.396,0.680,0.636,��쓌,10.8,��
2020/08/10,13:50,0.678,0.978,0.615,1.169,0.854,0.397,0.680,0.636,��쓌,9.9,��
2020/08/10,14:00,0.681,0.977,0.613,1.171,0.854,0.397,0.682,0.638,��,9.2,��
2020/08/10,14:10,0.680,0.974,0.613,1.170,0.857,0.397,0.682,0.637,��쓌,10.3,��
2020/08/10,14:20,0.679,0.975,0.613,1.172,0.856,0.396,0.684,0.637,��쓌,10.2,��
2020/08/10,14:30,0.679,0.978,0.613,1.172,0.854,0.396,0.683,0.638,��쓌,12.2,��
2020/08/10,14:40,0.679,0.978,0.614,1.171,0.856,0.395,0.680,0.639,��쓌,11.1,��
2020/08/10,14:50,0.680,0.980,0.612,1.169,0.853,0.395,0.680,0.638,��쓌,11.4,��
2020/08/10,15:00,0.679,0.979,0.614,1.172,0.854,0.395,0.681,0.638,��쓌,12.2,��
2020/08/10,15:10,0.680,0.978,0.612,1.173,0.854,0.397,0.680,0.638,��쓌,12.1,��
2020/08/10,15:20,0.679,0.979,0.612,1.175,0.854,0.395,0.680,0.637,��,12.8,��
2020/08/10,15:30,0.681,0.978,0.613,1.173,0.856,0.394,0.679,0.637,��,11.3,��
2020/08/10,15:40,0.680,0.981,0.613,1.174,0.856,0.395,0.679,0.637,��,10.8,��
2020/08/10,15:50,0.678,0.981,0.614,1.171,0.857,0.392,0.679,0.638,��,9.9,��
2020/08/10,16:00,0.680,0.982,0.613,1.174,0.856,0.394,0.679,0.637,��,8.6,��
2020/08/10,16:10,0.680,0.978,0.613,1.175,0.856,0.395,0.678,0.639,��,11.0,��
2020/08/10,16:20,0.678,0.979,0.612,1.174,0.856,0.395,0.679,0.639,��,9.7,��
2020/08/10,16:30,0.679,0.978,0.613,1.173,0.855,0.394,0.682,0.639,��,8.0,��
2020/08/10,16:40,0.681,0.980,0.611,1.177,0.858,0.396,0.679,0.638,��,7.3,��
2020/08/10,16:50,0.681,0.980,0.614,1.174,0.857,0.394,0.681,0.638,��,6.7,��
2020/08/10,17:00,0.680,0.981,0.616,1.177,0.854,0.395,0.679,0.639,��,7.9,��
2020/08/10,17:10,0.680,0.983,0.613,1.178,0.860,0.397,0.682,0.637,��,7.1,��
2020/08/10,17:20,0.682,0.982,0.616,1.177,0.857,0.396,0.680,0.636,��,7.6,��
2020/08/10,17:30,0.682,0.983,0.616,1.176,0.856,0.396,0.681,0.638,��,6.8,��
2020/08/10,17:40,0.681,0.983,0.615,1.174,0.857,0.396,0.680,0.637,��,6.5,��
2020/08/10,17:50,0.681,0.980,0.614,1.176,0.855,0.396,0.679,0.635,��,6.8,��
2020/08/10,18:00,0.679,0.982,0.613,1.173,0.857,0.396,0.679,0.637,��,6.8,��
2020/08/10,18:10,0.679,0.983,0.614,1.174,0.857,0.394,0.679,0.637,��,6.4,��
2020/08/10,18:20,0.680,0.982,0.612,1.174,0.856,0.395,0.678,0.637,��,5.8,��
2020/08/10,18:30,0.681,0.983,0.613,1.175,0.856,0.394,0.679,0.637,��,6.6,��
2020/08/10,18:40,0.680,0.983,0.612,1.175,0.856,0.394,0.680,0.636,��,5.7,��
2020/08/10,18:50,0.679,0.984,0.614,1.176,0.856,0.394,0.680,0.635,��,5.8,��
2020/08/10,19:00,0.680,0.982,0.613,1.177,0.855,0.392,0.680,0.638,��,6.6,��
2020/08/10,19:10,0.679,0.981,0.612,1.177,0.854,0.393,0.679,0.637,��,5.4,��
2020/08/10,19:20,0.677,0.981,0.614,1.176,0.855,0.394,0.680,0.637,��,6.6,��
2020/08/10,19:30,0.679,0.978,0.614,1.175,0.856,0.393,0.678,0.636,��,5.6,��
2020/08/10,19:40,0.681,0.984,0.615,1.177,0.855,0.394,0.678,0.637,��,6.4,��
2020/08/10,19:50,0.681,0.984,0.615,1.174,0.855,0.393,0.679,0.638,��,5.8,��
2020/08/10,20:00,0.680,0.980,0.614,1.174,0.857,0.395,0.679,0.637,��,4.8,��
2020/08/10,20:10,0.679,0.983,0.614,1.174,0.857,0.395,0.678,0.636,��,5.5,��
2020/08/10,20:20,0.680,0.984,0.618,1.176,0.856,0.394,0.679,0.637,��,5.4,��
2020/08/10,20:30,0.679,0.986,0.615,1.177,0.859,0.396,0.679,0.637,��,5.6,��
2020/08/10,20:40,0.679,0.985,0.615,1.175,0.856,0.395,0.679,0.638,��,5.2,��
2020/08/10,20:50,0.680,0.982,0.614,1.176,0.857,0.396,0.680,0.636,��,6.1,��
2020/08/10,21:00,0.680,0.984,0.617,1.177,0.858,0.395,0.680,0.638,��,5.6,��
2020/08/10,21:10,0.682,0.985,0.614,1.177,0.857,0.396,0.682,0.639,��,5.2,��
2020/08/10,21:20,0.679,0.985,0.616,1.180,0.860,0.397,0.679,0.636,��,3.7,��
2020/08/10,21:30,0.680,0.981,0.616,1.180,0.856,0.396,0.681,0.638,��,2.3,��
2020/08/10,21:40,0.680,0.982,0.616,1.178,0.858,0.398,0.679,0.637,��,2.2,��
2020/08/10,21:50,0.681,0.984,0.614,1.176,0.858,0.396,0.678,0.637,��,1.7,��
2020/08/10,22:00,0.679,0.984,0.616,1.177,0.858,0.396,0.681,0.638,��쐼,2.3,��
2020/08/10,22:10,0.680,0.983,0.614,1.179,0.855,0.395,0.680,0.638,��쐼,2.0,��
2020/08/10,22:20,0.679,0.985,0.616,1.179,0.858,0.397,0.680,0.638,��쐼,1.9,��
2020/08/10,22:30,0.682,0.985,0.614,1.178,0.857,0.396,0.679,0.638,��쐼,1.7,��
2020/08/10,22:40,0.681,0.984,0.617,1.179,0.857,0.396,0.679,0.638,��쐼,1.7,��
2020/08/10,22:50,0.682,0.986,0.616,1.179,0.857,0.398,0.681,0.638,��,1.2,��
2020/08/10,23:00,0.681,0.984,0.616,1.179,0.857,0.396,0.681,0.639,��,1.2,��
2020/08/10,23:10,0.682,0.985,0.616,1.177,0.859,0.396,0.681,0.639,��쐼,1.7,��
2020/08/10,23:20,0.681,0.985,0.617,1.181,0.858,0.396,0.680,0.640,�쐼,1.9,��
2020/08/10,23:30,0.680,0.984,0.616,1.179,0.857,0.397,0.681,0.638,�쐼,1.7,��
2020/08/10,23:40,0.683,0.986,0.617,1.179,0.858,0.396,0.681,0.637,���쐼,2.0,��
2020/08/10,23:50,0.681,0.985,0.616,1.177,0.858,0.396,0.680,0.639,���쐼,2.5,��
